Time,TemperatureF,DewpointF,PressureIn,WindDirection,WindDirectionDegrees,WindSpeedMPH,WindSpeedGustMPH,Humidity,HourlyPrecipIn,Conditions,Clouds,dailyrainin,SoftwareType,DateUTC
2013-06-16 00:00:00,77.6,73.8,29.94,East,84,0.0,6.0,88,0.00,,,0.00,Wunderground v.1.15,2013-06-16 04:00:00,
2013-06-16 00:05:00,77.7,73.9,29.94,ENE,78,1.0,6.0,88,0.00,,,0.00,Wunderground v.1.15,2013-06-16 04:05:00,
2013-06-16 00:10:00,77.9,74.1,29.94,East,95,2.0,2.0,88,0.00,,,0.00,Wunderground v.1.15,2013-06-16 04:10:00,
2013-06-16 00:15:00,78.1,73.9,29.94,ENE,77,3.0,3.0,87,0.00,,,0.00,Wunderground v.1.15,2013-06-16 04:15:00,
2013-06-16 00:20:00,78.3,74.1,29.94,ENE,63,2.0,2.0,87,0.00,,,0.00,Wunderground v.1.15,2013-06-16 04:20:00,
2013-06-16 00:30:00,78.5,74.3,29.95,East,95,1.0,4.0,87,0.00,,,0.00,Wunderground v.1.15,2013-06-16 04:30:00,
2013-06-16 00:40:00,78.5,74.3,29.95,ENE,77,1.0,1.0,87,0.00,,,0.00,Wunderground v.1.15,2013-06-16 04:40:00,
2013-06-16 00:45:00,78.6,74.4,29.94,ENE,77,2.0,2.0,87,0.00,,,0.00,Wunderground v.1.15,2013-06-16 04:45:00,
2013-06-16 00:50:00,78.5,74.6,29.94,ENE,78,2.0,2.0,88,0.00,,,0.00,Wunderground v.1.15,2013-06-16 04:50:00,
2013-06-16 01:00:00,78.6,74.7,29.94,East,88,0.0,0.0,88,0.00,,,0.00,Wunderground v.1.15,2013-06-16 05:00:00,
2013-06-16 01:10:00,78.8,74.9,29.94,NE,42,1.0,1.0,88,0.00,,,0.00,Wunderground v.1.15,2013-06-16 05:10:00,
2013-06-16 01:20:00,78.8,74.9,29.94,NE,35,2.0,9.0,88,0.00,,,0.00,Wunderground v.1.15,2013-06-16 05:20:00,
2013-06-16 01:25:00,78.8,74.9,29.94,East,86,2.0,9.0,88,0.00,,,0.00,Wunderground v.1.15,2013-06-16 05:25:00,
2013-06-16 01:35:00,78.6,74.7,29.94,ENE,68,2.0,9.0,88,0.00,,,0.00,Wunderground v.1.15,2013-06-16 05:35:00,
2013-06-16 01:45:00,78.6,75.1,29.94,NE,40,1.0,9.0,89,0.00,,,0.00,Wunderground v.1.15,2013-06-16 05:45:00,
2013-06-16 01:55:00,78.5,75.3,29.94,East,84,2.0,2.0,90,0.00,,,0.00,Wunderground v.1.15,2013-06-16 05:55:00,
2013-06-16 02:05:00,78.5,75.3,29.94,NNE,33,1.0,9.0,90,0.00,,,0.00,Wunderground v.1.15,2013-06-16 06:05:00,
2013-06-16 02:15:00,78.3,75.1,29.94,ENE,64,3.0,15.0,90,0.00,,,0.00,Wunderground v.1.15,2013-06-16 06:15:00,
2013-06-16 02:25:00,78.1,75.3,29.94,ENE,60,1.0,9.0,91,0.00,,,0.00,Wunderground v.1.15,2013-06-16 06:25:00,
2013-06-16 02:35:00,78.1,75.3,29.94,ENE,62,1.0,9.0,91,0.00,,,0.00,Wunderground v.1.15,2013-06-16 06:35:00,
2013-06-16 02:45:00,77.9,75.4,29.93,East,84,0.0,9.0,92,0.00,,,0.00,Wunderground v.1.15,2013-06-16 06:45:00,
2013-06-16 02:55:00,77.7,75.2,29.93,East,80,0.0,9.0,92,0.00,,,0.00,Wunderground v.1.15,2013-06-16 06:55:00,
2013-06-16 03:05:00,77.6,75.1,29.93,East,89,0.0,9.0,92,0.00,,,0.00,Wunderground v.1.15,2013-06-16 07:05:00,
2013-06-16 03:10:00,77.6,75.1,29.93,East,84,0.0,0.0,92,0.00,,,0.00,Wunderground v.1.15,2013-06-16 07:10:00,
2013-06-16 03:15:00,77.6,75.4,29.93,East,84,0.0,0.0,93,0.00,,,0.00,Wunderground v.1.15,2013-06-16 07:15:00,
2013-06-16 03:25:00,77.4,75.2,29.93,East,81,0.0,0.0,93,0.00,,,0.00,Wunderground v.1.15,2013-06-16 07:25:00,
2013-06-16 03:35:00,77.2,75.0,29.93,East,81,0.0,0.0,93,0.00,,,0.00,Wunderground v.1.15,2013-06-16 07:35:00,
2013-06-16 03:45:00,77.2,75.3,29.92,East,81,0.0,0.0,94,0.00,,,0.00,Wunderground v.1.15,2013-06-16 07:45:00,
2013-06-16 03:55:00,77.0,75.1,29.92,East,81,0.0,0.0,94,0.00,,,0.00,Wunderground v.1.15,2013-06-16 07:55:00,
2013-06-16 04:05:00,77.0,75.1,29.92,East,81,0.0,4.0,94,0.00,,,0.00,Wunderground v.1.15,2013-06-16 08:05:00,
2013-06-16 04:15:00,77.0,75.1,29.92,East,80,0.0,4.0,94,0.00,,,0.00,Wunderground v.1.15,2013-06-16 08:15:00,
2013-06-16 04:25:00,76.8,74.9,29.92,East,80,0.0,4.0,94,0.00,,,0.00,Wunderground v.1.15,2013-06-16 08:25:00,
2013-06-16 04:35:00,76.8,74.9,29.92,ENE,77,0.0,4.0,94,0.00,,,0.00,Wunderground v.1.15,2013-06-16 08:35:00,
2013-06-16 04:45:00,76.8,74.9,29.92,East,100,1.0,4.0,94,0.00,,,0.00,Wunderground v.1.15,2013-06-16 08:45:00,
2013-06-16 04:55:00,76.7,74.8,29.92,East,88,0.0,6.0,94,0.00,,,0.00,Wunderground v.1.15,2013-06-16 08:55:00,
2013-06-16 05:05:00,76.7,75.2,29.92,East,86,1.0,4.0,95,0.00,,,0.00,Wunderground v.1.15,2013-06-16 09:05:00,
2013-06-16 05:15:00,76.7,75.2,29.92,ENE,78,1.0,4.0,95,0.00,,,0.00,Wunderground v.1.15,2013-06-16 09:15:00,
2013-06-16 05:25:00,76.5,75.0,29.92,East,98,1.0,4.0,95,0.00,,,0.00,Wunderground v.1.15,2013-06-16 09:25:00,
2013-06-16 05:35:00,76.5,75.0,29.92,ESE,102,0.0,4.0,95,0.00,,,0.00,Wunderground v.1.15,2013-06-16 09:35:00,
2013-06-16 05:45:00,76.5,75.3,29.93,ESE,113,1.0,4.0,96,0.00,,,0.00,Wunderground v.1.15,2013-06-16 09:45:00,
2013-06-16 05:55:00,76.7,75.5,29.93,SSE,153,3.0,4.0,96,0.00,,,0.00,Wunderground v.1.15,2013-06-16 09:55:00,
2013-06-16 06:05:00,76.7,75.5,29.93,ESE,115,1.0,4.0,96,0.00,,,0.00,Wunderground v.1.15,2013-06-16 10:05:00,
2013-06-16 06:10:00,76.7,75.5,29.93,ESE,115,1.0,1.0,96,0.00,,,0.00,Wunderground v.1.15,2013-06-16 10:10:00,
2013-06-16 06:20:00,76.7,75.5,29.94,ESE,121,0.0,3.0,96,0.00,,,0.00,Wunderground v.1.15,2013-06-16 10:20:00,
2013-06-16 06:30:00,76.7,75.5,29.94,ESE,109,0.0,0.0,96,0.00,,,0.00,Wunderground v.1.15,2013-06-16 10:30:00,
2013-06-16 06:35:00,76.7,75.5,29.94,ESE,114,0.0,5.0,96,0.00,,,0.00,Wunderground v.1.15,2013-06-16 10:35:00,
2013-06-16 06:45:00,76.7,75.5,29.94,ESE,103,2.0,2.0,96,0.00,,,0.00,Wunderground v.1.15,2013-06-16 10:45:00,
2013-06-16 06:50:00,76.7,75.5,29.94,ESE,114,1.0,1.0,96,0.00,,,0.00,Wunderground v.1.15,2013-06-16 10:50:00,
2013-06-16 07:00:00,76.7,75.5,29.95,East,98,0.0,0.0,96,0.00,,,0.00,Wunderground v.1.15,2013-06-16 11:00:00,
2013-06-16 07:10:00,76.8,75.6,29.95,East,92,0.0,10.0,96,0.00,,,0.00,Wunderground v.1.15,2013-06-16 11:10:00,
2013-06-16 07:20:00,77.0,75.8,29.95,East,93,0.0,10.0,96,0.00,,,0.00,Wunderground v.1.15,2013-06-16 11:20:00,
2013-06-16 07:30:00,77.2,76.0,29.95,East,99,0.0,10.0,96,0.00,,,0.00,Wunderground v.1.15,2013-06-16 11:30:00,
2013-06-16 07:40:00,77.4,75.9,29.95,East,100,1.0,1.0,95,0.00,,,0.00,Wunderground v.1.15,2013-06-16 11:40:00,
2013-06-16 07:50:00,77.7,76.2,29.95,East,98,0.0,10.0,95,0.00,,,0.00,Wunderground v.1.15,2013-06-16 11:50:00,
2013-06-16 07:55:00,77.9,76.0,29.95,East,87,0.0,10.0,94,0.00,,,0.00,Wunderground v.1.15,2013-06-16 11:55:00,
2013-06-16 08:05:00,78.3,76.4,29.95,East,82,1.0,10.0,94,0.00,,,0.00,Wunderground v.1.15,2013-06-16 12:05:00,
2013-06-16 08:15:00,78.5,76.0,29.95,East,101,2.0,4.0,92,0.00,,,0.00,Wunderground v.1.15,2013-06-16 12:15:00,
2013-06-16 08:25:00,78.8,76.3,29.95,ESE,109,4.0,10.0,92,0.00,,,0.00,Wunderground v.1.15,2013-06-16 12:25:00,
2013-06-16 08:35:00,79.4,75.9,29.96,ESE,116,3.0,9.0,89,0.00,,,0.00,Wunderground v.1.15,2013-06-16 12:35:00,
2013-06-16 08:40:00,79.4,75.5,29.96,ESE,120,5.0,15.0,88,0.00,,,0.00,Wunderground v.1.15,2013-06-16 12:40:00,
2013-06-16 08:50:00,79.9,75.7,29.97,SE,140,8.0,10.0,87,0.00,,,0.00,Wunderground v.1.15,2013-06-16 12:50:00,
2013-06-16 09:00:00,80.5,75.9,29.97,East,89,7.0,10.0,86,0.00,,,0.00,Wunderground v.1.15,2013-06-16 13:00:00,
2013-06-16 09:10:00,80.9,76.0,29.97,ESE,108,6.0,6.0,85,0.00,,,0.00,Wunderground v.1.15,2013-06-16 13:10:00,
2013-06-16 09:20:00,81.6,75.9,29.97,SE,125,1.0,1.0,83,0.00,,,0.00,Wunderground v.1.15,2013-06-16 13:20:00,
2013-06-16 09:30:00,82.4,76.0,29.97,ESE,122,2.0,2.0,81,0.00,,,0.00,Wunderground v.1.15,2013-06-16 13:30:00,
2013-06-16 09:40:00,82.4,76.0,29.97,ESE,110,4.0,4.0,81,0.00,,,0.00,Wunderground v.1.15,2013-06-16 13:40:00,
2013-06-16 09:50:00,82.6,76.2,29.97,ESE,122,5.0,5.0,81,0.00,,,0.00,Wunderground v.1.15,2013-06-16 13:50:00,
2013-06-16 10:00:00,82.8,76.0,29.97,ESE,113,5.0,5.0,80,0.00,,,0.00,Wunderground v.1.15,2013-06-16 14:00:00,
2013-06-16 10:10:00,83.2,75.6,29.97,SSE,150,3.0,3.0,78,0.00,,,0.00,Wunderground v.1.15,2013-06-16 14:10:00,
2013-06-16 10:20:00,83.6,76.0,29.96,SSE,166,3.0,3.0,78,0.00,,,0.00,Wunderground v.1.15,2013-06-16 14:20:00,
2013-06-16 10:30:00,84.3,76.3,29.96,SE,146,2.0,20.0,77,0.00,,,0.00,Wunderground v.1.15,2013-06-16 14:30:00,
2013-06-16 10:40:00,84.3,75.9,29.96,South,172,7.0,7.0,76,0.00,,,0.00,Wunderground v.1.15,2013-06-16 14:40:00,
2013-06-16 10:50:00,84.9,75.7,29.96,ESE,107,3.0,3.0,74,0.00,,,0.00,Wunderground v.1.15,2013-06-16 14:50:00,
2013-06-16 11:00:00,85.1,75.9,29.95,SE,135,3.0,20.0,74,0.00,,,0.00,Wunderground v.1.15,2013-06-16 15:00:00,
2013-06-16 11:10:00,85.7,75.6,29.95,SSE,160,4.0,4.0,72,0.00,,,0.00,Wunderground v.1.15,2013-06-16 15:10:00,
2013-06-16 11:20:00,86.3,76.2,29.96,SSE,148,2.0,2.0,72,0.00,,,0.00,Wunderground v.1.15,2013-06-16 15:20:00,
2013-06-16 11:30:00,86.3,74.9,29.96,ESE,108,3.0,3.0,69,0.00,,,0.00,Wunderground v.1.15,2013-06-16 15:30:00,
2013-06-16 11:40:00,87.0,75.6,29.96,SSE,162,3.0,3.0,69,0.00,,,0.00,Wunderground v.1.15,2013-06-16 15:40:00,
2013-06-16 11:50:00,87.6,75.3,29.96,South,172,1.0,20.0,67,0.00,,,0.00,Wunderground v.1.15,2013-06-16 15:50:00,
2013-06-16 12:00:00,87.0,73.3,29.95,SE,143,2.0,2.0,64,0.00,,,0.00,Wunderground v.1.15,2013-06-16 16:00:00,
2013-06-16 12:10:00,87.2,73.5,29.95,ESE,116,1.0,1.0,64,0.00,,,0.00,Wunderground v.1.15,2013-06-16 16:10:00,
2013-06-16 12:20:00,88.0,74.3,29.95,South,176,1.0,8.0,64,0.00,,,0.00,Wunderground v.1.15,2013-06-16 16:20:00,
2013-06-16 12:25:00,87.8,73.6,29.95,West,262,2.0,8.0,63,0.00,,,0.00,Wunderground v.1.15,2013-06-16 16:25:00,
2013-06-16 12:35:00,88.2,77.2,29.95,SW,235,3.0,15.0,70,0.00,,,0.00,Wunderground v.1.15,2013-06-16 16:35:00,
2013-06-16 12:45:00,85.7,77.7,29.95,WSW,245,13.0,15.0,77,0.00,,,0.00,Wunderground v.1.15,2013-06-16 16:45:00,
2013-06-16 12:55:00,84.1,76.9,29.95,West,274,17.0,17.0,79,0.00,,,0.00,Wunderground v.1.15,2013-06-16 16:55:00,
2013-06-16 13:00:00,83.4,75.8,29.95,West,276,18.0,18.0,78,0.00,,,0.00,Wunderground v.1.15,2013-06-16 17:00:00,
2013-06-16 13:10:00,83.2,73.6,29.95,West,263,11.0,13.0,73,0.00,,,0.00,Wunderground v.1.15,2013-06-16 17:10:00,
2013-06-16 13:20:00,83.4,75.0,29.95,WSW,237,10.0,15.0,76,0.00,,,0.00,Wunderground v.1.15,2013-06-16 17:20:00,
2013-06-16 13:30:00,83.0,74.6,29.95,SW,221,9.0,9.0,76,0.00,,,0.00,Wunderground v.1.15,2013-06-16 17:30:00,
2013-06-16 13:35:00,83.0,73.9,29.95,SW,226,6.0,13.0,74,0.00,,,0.00,Wunderground v.1.15,2013-06-16 17:35:00,
2013-06-16 13:40:00,82.8,73.7,29.95,WSW,248,4.0,4.0,74,0.00,,,0.00,Wunderground v.1.15,2013-06-16 17:40:00,
2013-06-16 13:50:00,83.2,73.6,29.95,West,273,3.0,3.0,73,0.00,,,0.00,Wunderground v.1.15,2013-06-16 17:50:00,
2013-06-16 14:00:00,84.0,74.8,29.95,WNW,291,6.0,13.0,74,0.00,,,0.00,Wunderground v.1.15,2013-06-16 18:00:00,
2013-06-16 14:05:00,83.6,74.4,29.95,West,264,9.0,13.0,74,0.00,,,0.00,Wunderground v.1.15,2013-06-16 18:05:00,
2013-06-16 14:10:00,83.2,74.4,29.95,WSW,258,10.0,13.0,75,0.00,,,0.00,Wunderground v.1.15,2013-06-16 18:10:00,
2013-06-16 14:20:00,83.8,74.6,29.94,WNW,282,8.0,8.0,74,0.00,,,0.00,Wunderground v.1.15,2013-06-16 18:20:00,
2013-06-16 14:25:00,84.7,75.1,29.94,WNW,294,6.0,13.0,73,0.00,,,0.00,Wunderground v.1.15,2013-06-16 18:25:00,
2013-06-16 14:35:00,85.5,74.6,29.94,SW,236,10.0,19.0,70,0.00,,,0.00,Wunderground v.1.15,2013-06-16 18:35:00,
2013-06-16 14:45:00,86.5,76.0,29.94,West,265,10.0,21.0,71,0.00,,,0.00,Wunderground v.1.15,2013-06-16 18:45:00,
2013-06-16 14:50:00,86.7,76.6,29.94,WSW,253,10.0,14.0,72,0.00,,,0.00,Wunderground v.1.15,2013-06-16 18:50:00,
2013-06-16 15:00:00,87.2,77.1,29.94,SSW,209,8.0,8.0,72,0.00,,,0.00,Wunderground v.1.15,2013-06-16 19:00:00,
2013-06-16 15:05:00,87.2,77.1,29.93,SSW,193,10.0,10.0,72,0.00,,,0.00,Wunderground v.1.15,2013-06-16 19:05:00,
2013-06-16 15:15:00,87.2,77.5,29.94,SW,215,10.0,10.0,73,0.00,,,0.00,Wunderground v.1.15,2013-06-16 19:15:00,
2013-06-16 15:20:00,87.4,77.7,29.94,WSW,253,9.0,18.0,73,0.00,,,0.00,Wunderground v.1.15,2013-06-16 19:20:00,
2013-06-16 15:30:00,87.0,76.5,29.93,SW,214,13.0,16.0,71,0.00,,,0.00,Wunderground v.1.15,2013-06-16 19:30:00,
2013-06-16 15:40:00,86.7,77.4,29.93,SW,228,14.0,20.0,74,0.00,,,0.00,Wunderground v.1.15,2013-06-16 19:40:00,
2013-06-16 15:45:00,86.5,76.8,29.92,West,277,12.0,20.0,73,0.00,,,0.00,Wunderground v.1.15,2013-06-16 19:45:00,
2013-06-16 15:55:00,86.5,76.4,29.92,West,267,16.0,19.0,72,0.00,,,0.00,Wunderground v.1.15,2013-06-16 19:55:00,
2013-06-16 16:00:00,86.5,75.1,29.91,WSW,255,16.0,19.0,69,0.00,,,0.00,Wunderground v.1.15,2013-06-16 20:00:00,
2013-06-16 16:10:00,86.3,74.9,29.91,WSW,255,14.0,14.0,69,0.00,,,0.00,Wunderground v.1.15,2013-06-16 20:10:00,
2013-06-16 16:20:00,86.5,75.1,29.91,WSW,249,10.0,10.0,69,0.00,,,0.00,Wunderground v.1.15,2013-06-16 20:20:00,
2013-06-16 16:30:00,87.2,77.1,29.91,West,269,13.0,23.0,72,0.00,,,0.00,Wunderground v.1.15,2013-06-16 20:30:00,
2013-06-16 16:40:00,86.7,77.0,29.91,West,278,19.0,20.0,73,0.00,,,0.00,Wunderground v.1.15,2013-06-16 20:40:00,
2013-06-16 16:50:00,86.7,76.6,29.92,West,281,17.0,17.0,72,0.00,,,0.00,Wunderground v.1.15,2013-06-16 20:50:00,
2013-06-16 17:00:00,86.5,76.8,29.92,WNW,283,16.0,22.0,73,0.00,,,0.00,Wunderground v.1.15,2013-06-16 21:00:00,
2013-06-16 17:05:00,86.7,77.8,29.92,WNW,295,15.0,22.0,75,0.00,,,0.00,Wunderground v.1.15,2013-06-16 21:05:00,
2013-06-16 17:15:00,86.1,77.2,29.92,West,275,17.0,17.0,75,0.00,,,0.00,Wunderground v.1.15,2013-06-16 21:15:00,
2013-06-16 17:25:00,86.1,76.8,29.92,South,183,6.0,19.0,74,0.00,,,0.00,Wunderground v.1.15,2013-06-16 21:25:00,
2013-06-16 17:35:00,82.0,72.9,29.92,ESE,103,7.0,7.0,74,0.00,,,0.00,Wunderground v.1.15,2013-06-16 21:35:00,
2013-06-16 17:45:00,81.4,73.1,29.92,East,79,3.0,19.0,76,0.00,,,0.00,Wunderground v.1.15,2013-06-16 21:45:00,
2013-06-16 17:50:00,81.2,73.3,29.91,ESE,121,4.0,4.0,77,0.00,,,0.00,Wunderground v.1.15,2013-06-16 21:50:00,
2013-06-16 18:00:00,81.1,74.0,29.92,NNE,20,0.0,19.0,79,0.00,,,0.00,Wunderground v.1.15,2013-06-16 22:00:00,
2013-06-16 18:05:00,81.2,74.4,29.92,NE,46,0.0,19.0,80,0.00,,,0.00,Wunderground v.1.15,2013-06-16 22:05:00,
2013-06-16 18:10:00,80.9,74.5,29.92,NE,52,0.0,0.0,81,0.00,,,0.00,Wunderground v.1.15,2013-06-16 22:10:00,
2013-06-16 18:20:00,80.9,74.9,29.92,ENE,72,1.0,1.0,82,0.00,,,0.00,Wunderground v.1.15,2013-06-16 22:20:00,
2013-06-16 18:30:00,80.9,75.2,29.92,NNW,330,0.0,6.0,83,0.00,,,0.00,Wunderground v.1.15,2013-06-16 22:30:00,
2013-06-16 18:40:00,81.4,76.5,29.92,WNW,297,5.0,10.0,85,0.00,,,0.00,Wunderground v.1.15,2013-06-16 22:40:00,
2013-06-16 18:50:00,80.3,73.2,29.92,WNW,285,16.0,19.0,79,0.00,,,0.00,Wunderground v.1.15,2013-06-16 22:50:00,
2013-06-16 19:00:00,81.4,74.3,29.92,West,266,13.0,13.0,79,0.00,,,0.00,Wunderground v.1.15,2013-06-16 23:00:00,
2013-06-16 19:10:00,81.8,75.0,29.92,WNW,290,7.0,7.0,80,0.00,,,0.00,Wunderground v.1.15,2013-06-16 23:10:00,
2013-06-16 19:20:00,82.2,75.8,29.92,West,276,3.0,7.0,81,0.00,,,0.00,Wunderground v.1.15,2013-06-16 23:20:00,
2013-06-16 19:30:00,82.4,76.3,29.93,West,278,5.0,5.0,82,0.00,,,0.00,Wunderground v.1.15,2013-06-16 23:30:00,
2013-06-16 19:40:00,82.4,76.7,29.93,West,273,0.0,5.0,83,0.00,,,0.00,Wunderground v.1.15,2013-06-16 23:40:00,
2013-06-16 19:45:00,82.4,76.7,29.93,West,273,0.0,5.0,83,0.00,,,0.00,Wunderground v.1.15,2013-06-16 23:45:00,
2013-06-16 19:55:00,82.4,76.3,29.93,West,270,2.0,12.0,82,0.00,,,0.00,Wunderground v.1.15,2013-06-16 23:55:00,
2013-06-16 20:00:00,82.2,75.8,29.92,West,274,6.0,6.0,81,0.00,,,0.00,Wunderground v.1.15,2013-06-17 00:00:00,
2013-06-16 20:10:00,82.4,75.6,29.92,WNW,293,1.0,6.0,80,0.00,,,0.00,Wunderground v.1.15,2013-06-17 00:10:00,
2013-06-16 20:20:00,82.4,75.6,29.92,WNW,283,7.0,7.0,80,0.00,,,0.00,Wunderground v.1.15,2013-06-17 00:20:00,
2013-06-16 20:30:00,82.4,76.0,29.92,NW,314,7.0,11.0,81,0.00,,,0.00,Wunderground v.1.15,2013-06-17 00:30:00,
2013-06-16 20:35:00,82.2,76.2,29.92,West,270,7.0,11.0,82,0.00,,,0.00,Wunderground v.1.15,2013-06-17 00:35:00,
2013-06-16 20:45:00,81.8,75.4,29.92,West,277,7.0,8.0,81,0.00,,,0.00,Wunderground v.1.15,2013-06-17 00:45:00,
2013-06-16 20:55:00,81.8,75.0,29.92,West,273,2.0,9.0,80,0.00,,,0.00,Wunderground v.1.15,2013-06-17 00:55:00,
2013-06-16 21:05:00,82.0,75.6,29.93,WNW,293,2.0,5.0,81,0.00,,,0.00,Wunderground v.1.15,2013-06-17 01:05:00,
2013-06-16 21:15:00,82.0,76.0,29.94,WNW,295,0.0,0.0,82,0.00,,,0.00,Wunderground v.1.15,2013-06-17 01:15:00,
2013-06-16 21:25:00,82.0,76.0,29.94,NW,323,1.0,1.0,82,0.00,,,0.00,Wunderground v.1.15,2013-06-17 01:25:00,
2013-06-16 21:35:00,82.0,75.6,29.94,NW,324,0.0,0.0,81,0.00,,,0.00,Wunderground v.1.15,2013-06-17 01:35:00,
2013-06-16 21:45:00,82.2,76.2,29.95,NW,324,0.0,0.0,82,0.00,,,0.00,Wunderground v.1.15,2013-06-17 01:45:00,
2013-06-16 21:55:00,81.8,75.8,29.95,NW,319,0.0,0.0,82,0.00,,,0.00,Wunderground v.1.15,2013-06-17 01:55:00,
2013-06-16 22:05:00,81.6,75.6,29.95,WNW,295,0.0,11.0,82,0.00,,,0.00,Wunderground v.1.15,2013-06-17 02:05:00,
2013-06-16 22:15:00,81.4,75.4,29.94,WNW,295,0.0,11.0,82,0.00,,,0.00,Wunderground v.1.15,2013-06-17 02:15:00,
2013-06-16 22:25:00,81.4,75.4,29.94,West,264,0.0,11.0,82,0.00,,,0.00,Wunderground v.1.15,2013-06-17 02:25:00,
2013-06-16 22:35:00,81.4,75.4,29.94,West,264,0.0,11.0,82,0.00,,,0.00,Wunderground v.1.15,2013-06-17 02:35:00,
2013-06-16 22:45:00,81.4,75.7,29.95,West,264,0.0,11.0,83,0.00,,,0.00,Wunderground v.1.15,2013-06-17 02:45:00,
2013-06-16 22:55:00,81.4,75.7,29.95,West,264,0.0,11.0,83,0.00,,,0.00,Wunderground v.1.15,2013-06-17 02:55:00,
2013-06-16 23:05:00,81.4,75.4,29.95,West,264,0.0,11.0,82,0.00,,,0.00,Wunderground v.1.15,2013-06-17 03:05:00,
2013-06-16 23:10:00,81.4,75.7,29.95,West,264,0.0,11.0,83,0.00,,,0.00,Wunderground v.1.15,2013-06-17 03:10:00,
2013-06-16 23:20:00,81.4,75.7,29.97,West,264,0.0,11.0,83,0.00,,,0.00,Wunderground v.1.15,2013-06-17 03:20:00,
2013-06-16 23:30:00,81.4,75.7,29.97,West,264,0.0,11.0,83,0.00,,,0.00,Wunderground v.1.15,2013-06-17 03:30:00,
2013-06-16 23:40:00,81.4,75.4,29.97,West,264,0.0,11.0,82,0.00,,,0.00,Wunderground v.1.15,2013-06-17 03:40:00,
2013-06-16 23:50:00,81.4,75.4,29.97,West,265,0.0,11.0,82,0.00,,,0.00,Wunderground v.1.15,2013-06-17 03:50:00,